EHI
0 0 0 0 0 0 0 0 0 0 0 0 0 0 0 0 0 0 0 0 0 0 0 0 0 0 0 0 0 0 0 0 0 0 0 0 0 0
0 0 0 0 0 0 0 0 0 0 0 0 0 0 0 0 0 0 0 0 0 0 0 0 0 0 0 0 0 0 0 0 0 0 0 0 0 0
0 0 0 0 0 0 0 0 0 0 0 0 0 0 0 0 0 0 0 0 0 0 0 0 0 0 0 0 0 0 0 0 0 0 0 0 0 0
0 0 0 0 0 0 0 0 0 0 0 0 0 0 0 0 0 0 0 0 0 0 0 0 0 0 0 0 0 0 0 0 0 0 0 0 0 0
0 0 0 0 0 0 0 0 0 0 0 0 0 0 0 0 0 0 0 0 0 0 0 0 0 0 0 0 0 0 0 0 0 0 0 0 0 0
0 0 0 0 0 0 0 0 0 0 0 0 0 0 0 0 0 0 0 0 0 0 0 0 0 0 0 0 0 0 0 0 0 0 0 0 0 0
0 0 0 0 0 0 0 0 0 0 0 0 0 0 0 0 0 0 0 0 0 0 0 0 0 0 0 0 0 0 0 0 0 0 0 0 0 0
0 0 0 0 0 0 0 0 0 0 0 0 0 0 0 0 0 0 0 0 0 0 0 0 0 0 0 0 0 0 0 0 0 0 0 0 0 0
0 0 0 0 0 0 0 0 0 0 0 0 0 0 0 0 0 0 0 0 0 0 0 0 0 0 0 0 0 0 0 0 0 0 0 0 0 0
0 0 0 0 0 0 0 0 0 0 0 0 0 0 0 0 0 0 0 0 0 0 0 0 0 0 0 0 0 0 0 0 0 0 0 0 0 0
0 0 0 0 0 0 0 0 0 0 0 0 0 0 0 0 0 0 0 0 0 0 0 0 0 0 0 0 0 0 0 0 0 0 0 0 0 0
0 0 0 0 0 0 0 0 0 0 0 0 0 0 0 0 0 0 0 0 0 0 0 0 0 0 0 0 0 0 0 0 0 0 0 0 0 0
0 0 0 0 0 0 0 0 0 0 0 0 0 0 0 0 0 0 0 0 0 0 0 0 0 0 0 0 0 0 0 0 0 0 0 0 0 0
0 0 0 0 0 0 0 0 0 0 0 0 0 0 0 0 0 0 0 0 0 0 0 0 0 0 0 0 0 0 0 0 0 0 0 0 0 0
0 0 0 0 0 0 0 0 0 0 0 0 0 0 0 0 0 0 0 0 0 0 0 0 0 0 0 0 0 0 0 0 0 0 0 0 0 0
0 0 0 0 0 0 0 0 0 0 0 0 0 0 0 0 0 0 0 0 0 0 0 0 0 0 0 0 0 0 0 0 0 0 0 0 0 0
0 0 0 0 0 0 0 0 0 0 0 0 0 0 0 0 0 0 0 0 0 0 0 0 0 0 0 0 0 0 0 0 0 0 0 0 0 0
0 0 0 0 0 0 0 0 0 0 0 0 0 0 0 0 0 0 0 0 0 0 0 0 0 0 0 0 0 0 0 0 0 0 0 0 0 0
0 0 0 0 0 0 0 0 0 0 0 0 0 0 0 0 0 0 0 0 0 0 0 0 0 0 0 0 0 0 0 0 0 0 0 0 0 0
0 0 0 0 0 0 0 0 0 0 0 0 0 0 0 0 0 0 0 0 0 0 0 0 0 0 0 0 0 0 0 0 0 0 0 0 0 0
0 0 0 0 0 0 0 0 0 0 0 0 0 0 0 0 0 0 0 0 0 0 0 0 0 0 0 0 0 0 0 0 0 0 0 0 0 0
0 0 0 0 0 0 0 0 0 0 0 0 0 0 0 0 0 0 0 0 0 0 0 0 0 0 0 0 0 0 0 0 0 0 0 0 0 0
0 0 0 0 0 0 0 0 0 0 0 0 0 0 0 0 0 0 0 0 0 0 0 0 0 0 0 0 0 0 0 0 0 0 0 0 0 0
Wind_Speed
3 4 3 3 2 2 2 3 3 3 4 3 2 2 2 2 4 3 3 7 9 9 9 10 10 10 11 11 11 12 12 13 13 14 15 15 16 16
3 3 4 3 2 3 3 3 3 3 4 2 2 2 2 3 5 3 4 9 9 9 10 9 9 10 10 10 11 12 12 13 14 14 15 15 14 15
3 3 4 4 3 3 3 3 3 3 4 4 2 2 2 3 4 3 3 4 4 9 10 10 10 10 10 11 12 12 13 13 13 14 13 14 14 14
4 4 4 3 4 3 3 4 4 4 4 5 3 2 3 3 3 4 4 4 4 7 9 10 10 10 10 11 12 12 12 12 12 12 13 13 14 14
4 5 5 5 5 4 4 4 3 3 3 3 4 2 2 2 2 3 4 4 4 6 8 9 10 10 10 10 11 11 11 11 11 11 12 13 14 14
4 4 5 5 5 5 4 5 4 3 3 3 3 2 2 2 2 3 4 3 4 4 6 7 8 9 10 10 10 10 10 10 11 11 12 12 13 13
3 4 4 5 6 5 4 4 4 4 3 3 3 3 2 2 3 2 4 4 4 3 3 3 4 4 5 8 9 9 10 10 11 11 12 12 12 12
2 2 2 3 4 6 6 6 5 4 4 4 3 4 4 3 3 3 3 4 4 2 2 4 2 4 4 3 7 9 10 11 11 11 11 11 11 11
2 1 2 2 3 2 3 4 4 5 6 4 4 4 4 4 3 4 4 4 4 3 3 4 3 4 4 5 9 9 10 11 10 10 11 11 11 11
1 2 1 2 2 2 1 1 2 3 4 3 3 4 4 4 4 4 4 4 4 2 2 4 3 4 4 4 8 9 10 10 10 11 11 11 11 11
1 1 1 2 3 3 1 1 2 2 3 4 4 4 5 5 3 1 2 2 4 3 1 2 3 3 3 3 5 8 9 10 10 11 12 12 12 11
1 1 3 3 4 4 1 1 2 2 2 2 3 3 3 3 4 2 2 3 3 3 1 1 2 3 3 2 2 3 4 8 11 11 12 12 12 6
1 1 1 4 4 4 3 1 3 2 1 1 1 2 2 1 1 1 1 2 3 3 2 1 2 2 3 4 3 3 3 3 5 6 9 11 11 7
1 1 1 4 4 4 3 3 4 3 1 1 1 1 2 2 2 2 2 2 3 4 3 2 2 2 3 4 4 3 3 3 3 4 5 8 9 8
1 2 3 4 4 3 4 5 3 2 1 1 1 2 2 2 2 2 2 2 2 3 3 3 3 3 3 4 4 4 4 4 3 3 4 4 4 4
1 2 4 4 4 4 4 3 2 1 1 1 2 2 2 2 2 2 2 2 2 3 2 2 3 3 3 4 4 5 4 4 4 4 4 4 3 3
1 1 1 2 2 2 2 2 2 2 2 2 1 2 2 2 2 2 2 2 2 3 3 2 2 2 4 4 4 4 4 4 4 4 4 4 4 3
2 1 1 2 2 2 2 2 2 2 2 2 2 2 2 2 2 2 1 1 2 3 3 3 3 2 2 2 3 4 4 4 4 4 3 4 5 4
2 1 1 1 1 2 2 2 2 2 2 2 2 2 2 2 2 2 2 2 2 2 3 2 2 2 2 4 3 2 3 4 4 4 3 3 4 5
1 1 1 1 1 1 2 2 2 2 2 2 2 2 2 2 2 2 2 2 2 3 3 2 2 2 2 3 4 4 4 4 4 4 4 3 4 6
1 1 1 1 1 1 2 2 2 2 2 2 2 2 2 2 2 2 2 3 3 2 3 3 3 5 3 2 3 3 3 4 5 4 4 4 4 3
1 1 1 1 1 1 2 2 2 2 2 2 2 2 2 2 2 2 2 2 2 2 3 3 4 3 2 2 3 4 5 5 5 6 6 5 3 2
2 2 2 2 2 2 2 2 3 2 2 2 2 2 2 2 2 2 2 2 2 3 3 3 3 2 2 2 2 3 5 5 4 4 4 6 6 7
Wind_Direction
225 216 216 219 214 213 203 192 198 251 264 250 252 267 279 278 286 288 286 298 303 301 302 302 304 308 309 310 310 310 310 311 312 311 310 308 308 310
224 220 220 218 218 214 210 211 209 222 255 254 248 271 288 290 294 298 285 299 301 298 297 298 302 304 305 307 308 308 308 309 309 308 307 307 308 309
224 221 228 217 214 216 212 209 216 216 249 270 257 271 265 276 297 296 289 285 288 296 301 301 301 302 303 305 305 305 306 306 307 308 308 309 307 308
227 221 232 227 218 216 215 218 223 221 233 268 276 264 260 264 277 285 292 292 283 296 301 302 302 302 303 303 303 303 304 305 307 310 310 309 307 307
224 222 227 222 222 221 221 223 227 235 233 251 269 263 264 272 287 286 285 286 290 298 300 299 299 301 302 304 305 307 307 306 307 309 310 311 310 307
227 226 229 225 223 224 227 223 222 229 235 246 264 272 268 267 268 280 293 289 291 298 295 295 296 300 303 305 306 308 308 306 307 309 310 309 310 309
234 236 238 238 238 239 238 227 218 223 230 246 260 271 266 264 263 266 283 295 285 274 286 288 291 289 296 300 302 304 307 309 310 308 308 309 309 313
241 255 252 241 249 258 262 261 247 232 233 239 255 261 265 258 262 268 279 293 292 282 287 288 282 282 284 281 298 304 308 311 312 313 311 312 312 314
236 254 282 283 285 247 268 285 281 274 257 247 250 257 258 249 253 265 265 272 271 281 294 288 288 284 290 300 307 310 313 312 312 315 315 312 309 309
264 254 252 268 273 275 255 281 276 277 270 258 243 253 256 251 241 245 255 273 270 264 257 279 291 287 296 297 309 313 317 317 320 322 318 314 312 310
315 305 299 269 285 308 310 273 284 289 294 287 285 284 282 278 273 268 263 276 284 278 239 263 285 294 291 291 305 319 322 323 325 326 323 318 315 311
348 339 312 304 304 309 279 247 274 285 299 321 318 314 308 305 300 274 249 261 281 285 254 266 290 315 309 293 300 313 317 319 321 322 323 321 316 309
343 329 312 321 323 320 318 292 289 308 313 296 303 318 328 328 315 299 271 252 262 268 268 265 285 293 284 298 304 296 295 304 313 315 321 324 320 314
337 320 329 341 343 339 332 336 339 335 329 322 322 322 319 314 304 296 279 265 258 262 267 258 259 267 281 290 295 305 305 301 305 309 313 321 323 320
6 358 4 6 359 354 350 352 357 352 348 333 316 305 299 295 301 303 302 290 281 274 267 256 251 260 260 268 281 293 303 302 299 304 311 315 314 320
25 18 13 17 16 5 2 2 3 354 343 315 306 312 314 312 306 304 305 310 309 303 288 266 255 248 261 266 271 284 289 293 307 308 305 306 310 307
57 61 43 28 22 10 8 7 3 359 353 338 326 326 325 323 314 308 297 308 303 301 310 314 291 259 251 260 274 280 287 290 291 300 307 311 308 303
57 65 37 24 9 355 355 357 355 350 340 333 335 332 326 327 327 324 312 303 302 303 308 315 320 315 298 275 248 274 288 293 300 304 301 302 308 313
60 60 26 4 349 341 340 339 332 328 327 332 335 331 327 328 331 330 327 321 316 314 315 319 324 324 321 316 311 278 286 301 309 310 307 299 300 309
45 33 348 332 321 322 325 323 320 323 326 327 327 325 326 322 324 329 332 331 323 321 323 325 327 319 291 288 294 304 306 298 306 312 317 310 297 298
352 337 320 307 303 308 307 304 303 306 317 321 320 320 317 312 314 320 321 326 329 323 320 316 305 308 292 290 297 308 315 313 301 296 310 312 312 320
324 310 307 301 297 296 297 299 303 310 320 317 315 317 311 306 313 320 326 328 325 319 312 312 318 325 329 319 312 314 322 327 326 320 305 285 288 307
306 299 296 296 294 293 291 295 299 305 309 310 313 315 314 315 318 321 323 324 325 328 328 326 331 335 331 321 316 318 323 328 332 337 334 330 312 293